sat.trackr.live / text

‹ back to catalog

YAOGAN-39 03B

NORAD 57988 · 2023-152C

PAYLOAD ACTIVE UNKNOWN

§ Identity

Operator
Country
PRC
Launch date
2023-10-05
Launch site
XICLF
Launch vehicle
Mass (kg)
RCS (m²)

External: N2YO · Heavens-Above · Gunter

§ Orbital elements

Epoch: 2026-09-21T19:59:15.547776Z

Period
94.93 min
Inclination
34.9896°
Eccentricity
0.0026576
Mean motion
15.16961293 rev/d
Perigee alt
496.7 km
Apogee alt
533.3 km
Semi-major
6,893.2 km
B*
1.5754e-4
RAAN
54.1612°
Arg perigee
8.9727°
Mean anomaly
351.1456°
Rev number
16,487

§ Raw data

YAOGAN-39 03B1 57988U 23152C   26264.83281884  .00003176  00000+0  15754-3 0  99932 57988  34.9896  54.1612 0026576   8.9727 351.1456 15.16961293164870

JSON: /api/v1/satellites/57988 · /tle

For live sub-satellite position, see the globe view (requires WebGL).

§ Visibility from observer

Set your observer location to see the next 7 days of passes ≥ 10°. The values pass through the URL so the page stays shareable.

No JS? Fill the form by hand. The geolocation button needs JavaScript.